Time,TemperatureF,DewpointF,PressureIn,WindDirection,WindDirectionDegrees,WindSpeedMPH,WindSpeedGustMPH,Humidity,HourlyPrecipIn,Conditions,Clouds,dailyrainin,SoftwareType,DateUTC
2013-03-01 00:02:00,27.0,18.0,30.13,NE,44,3.0,6.0,68,0.00,,,0.00,,2013-03-01 06:02:00,
2013-03-01 00:11:00,27.0,18.0,30.16,NE,37,0.0,6.0,68,0.00,,,0.00,,2013-03-01 06:11:00,
2013-03-01 00:21:00,27.0,18.0,30.16,NE,37,0.0,6.0,68,0.00,,,0.00,,2013-03-01 06:21:00,
2013-03-01 00:32:00,27.0,18.0,30.16,NNE,24,4.0,6.0,67,0.00,,,0.00,,2013-03-01 06:32:00,
2013-03-01 00:42:00,27.0,18.0,30.16,NNE,24,4.0,6.0,67,0.00,,,0.00,,2013-03-01 06:42:00,
2013-03-01 00:52:00,27.0,17.0,30.16,NNE,26,0.0,6.0,66,0.00,,,0.00,,2013-03-01 06:52:00,
2013-03-01 01:01:00,27.0,18.0,30.13,NE,43,4.0,7.0,67,0.00,,,0.00,,2013-03-01 07:01:00,
2013-03-01 01:11:00,27.0,18.0,30.13,NE,43,4.0,7.0,67,0.00,,,0.00,,2013-03-01 07:11:00,
2013-03-01 01:22:00,27.0,18.0,30.16,NE,35,4.0,7.0,68,0.00,,,0.00,,2013-03-01 07:22:00,
2013-03-01 01:32:00,26.0,17.0,30.16,NNE,29,5.0,6.0,69,0.00,,,0.00,,2013-03-01 07:32:00,
2013-03-01 01:42:00,26.0,17.0,30.16,NNE,29,5.0,6.0,69,0.00,,,0.00,,2013-03-01 07:42:00,
2013-03-01 01:52:00,26.0,18.0,30.16,NE,54,5.0,6.0,70,0.00,,,0.00,,2013-03-01 07:52:00,
2013-03-01 02:01:00,26.0,18.0,30.13,NE,39,3.0,6.0,71,0.00,,,0.00,,2013-03-01 08:01:00,
2013-03-01 02:11:00,26.0,18.0,30.13,NE,39,3.0,6.0,71,0.00,,,0.00,,2013-03-01 08:11:00,
2013-03-01 02:22:00,26.0,18.0,30.16,NE,50,3.0,7.0,71,0.00,,,0.00,,2013-03-01 08:22:00,
2013-03-01 02:32:00,26.0,18.0,30.16,NE,44,3.0,8.0,71,0.00,,,0.00,,2013-03-01 08:32:00,
2013-03-01 02:42:00,26.0,18.0,30.16,NE,44,3.0,8.0,71,0.00,,,0.00,,2013-03-01 08:42:00,
2013-03-01 02:53:00,26.0,18.0,30.16,NE,55,4.0,6.0,71,0.00,,,0.00,,2013-03-01 08:53:00,
2013-03-01 03:02:00,26.0,18.0,30.16,NE,55,0.0,7.0,71,0.00,,,0.00,,2013-03-01 09:02:00,
2013-03-01 03:11:00,26.0,18.0,30.16,NE,55,0.0,7.0,71,0.00,,,0.00,,2013-03-01 09:11:00,
2013-03-01 03:22:00,26.0,18.0,30.16,ENE,68,4.0,7.0,72,0.00,,,0.00,,2013-03-01 09:22:00,
2013-03-01 03:32:00,26.0,19.0,30.13,NE,47,4.0,6.0,73,0.00,,,0.00,,2013-03-01 09:32:00,
2013-03-01 03:42:00,26.0,19.0,30.13,NE,47,4.0,6.0,73,0.00,,,0.00,,2013-03-01 09:42:00,
2013-03-01 03:52:00,26.0,19.0,30.13,NE,34,5.0,5.0,73,0.00,,,0.00,,2013-03-01 09:52:00,
2013-03-01 04:02:00,26.0,19.0,30.13,NE,50,2.0,7.0,73,0.00,,,0.00,,2013-03-01 10:02:00,
2013-03-01 04:11:00,26.0,19.0,30.13,NNE,31,3.0,8.0,73,0.00,,,0.00,,2013-03-01 10:11:00,
2013-03-01 04:21:00,26.0,19.0,30.13,NNE,31,3.0,8.0,73,0.00,,,0.00,,2013-03-01 10:21:00,
2013-03-01 04:32:00,26.0,18.0,30.16,NE,54,3.0,7.0,72,0.00,,,0.00,,2013-03-01 10:32:00,
2013-03-01 04:42:00,26.0,18.0,30.16,NE,54,3.0,7.0,72,0.00,,,0.00,,2013-03-01 10:42:00,
2013-03-01 04:52:00,26.0,18.0,30.16,NE,44,5.0,8.0,72,0.00,,,0.00,,2013-03-01 10:52:00,
2013-03-01 05:01:00,26.0,18.0,30.16,NE,44,5.0,8.0,72,0.00,,,0.00,,2013-03-01 11:01:00,
2013-03-01 05:11:00,26.0,18.0,30.16,NE,44,5.0,8.0,72,0.00,,,0.00,,2013-03-01 11:11:00,
2013-03-01 05:22:00,26.0,18.0,30.16,NE,42,6.0,8.0,72,0.00,,,0.00,,2013-03-01 11:22:00,
2013-03-01 05:32:00,26.0,18.0,30.16,ENE,60,3.0,8.0,72,0.00,,,0.00,,2013-03-01 11:32:00,
2013-03-01 05:42:00,26.0,18.0,30.16,ENE,60,3.0,8.0,72,0.00,,,0.00,,2013-03-01 11:42:00,
2013-03-01 05:52:00,25.0,18.0,30.16,NE,44,6.0,9.0,73,0.00,,,0.00,,2013-03-01 11:52:00,
2013-03-01 06:01:00,25.0,18.0,30.16,NE,53,4.0,9.0,73,0.00,,,0.00,,2013-03-01 12:01:00,
2013-03-01 06:11:00,25.0,18.0,30.16,NE,53,4.0,9.0,73,0.00,,,0.00,,2013-03-01 12:11:00,
2013-03-01 06:21:00,25.0,18.0,30.16,NE,43,3.0,8.0,73,0.00,,,0.00,,2013-03-01 12:21:00,
2013-03-01 06:32:00,25.0,17.0,30.16,NE,56,2.0,10.0,72,0.00,,,0.00,,2013-03-01 12:32:00,
2013-03-01 06:42:00,25.0,17.0,30.16,NE,56,2.0,10.0,72,0.00,,,0.00,,2013-03-01 12:42:00,
2013-03-01 06:52:00,25.0,18.0,30.16,NE,45,5.0,8.0,73,0.00,,,0.00,,2013-03-01 12:52:00,
2013-03-01 07:01:00,25.0,18.0,30.19,NE,51,0.0,8.0,74,0.00,,,0.00,,2013-03-01 13:01:00,
2013-03-01 07:11:00,25.0,18.0,30.19,ENE,62,3.0,8.0,74,0.00,,,0.00,,2013-03-01 13:11:00,
2013-03-01 07:21:00,25.0,18.0,30.19,ENE,62,3.0,8.0,74,0.00,,,0.00,,2013-03-01 13:21:00,
2013-03-01 07:32:00,25.0,18.0,30.19,NE,53,4.0,8.0,75,0.00,,,0.00,,2013-03-01 13:32:00,
2013-03-01 07:41:00,25.0,18.0,30.19,NE,53,4.0,8.0,75,0.00,,,0.00,,2013-03-01 13:41:00,
2013-03-01 07:52:00,25.0,18.0,30.19,NE,43,4.0,9.0,75,0.00,,,0.00,,2013-03-01 13:52:00,
2013-03-01 08:01:00,25.0,18.0,30.19,ENE,60,0.0,9.0,75,0.00,,,0.00,,2013-03-01 14:01:00,
2013-03-01 08:11:00,25.0,18.0,30.19,ENE,60,0.0,9.0,75,0.00,,,0.00,,2013-03-01 14:11:00,
2013-03-01 08:21:00,25.0,19.0,30.19,ENE,63,2.0,8.0,76,0.00,,,0.00,,2013-03-01 14:21:00,
2013-03-01 08:32:00,25.0,19.0,30.19,NE,54,7.0,7.0,77,0.00,,,0.00,,2013-03-01 14:32:00,
2013-03-01 08:41:00,25.0,19.0,30.19,NE,54,7.0,7.0,77,0.00,,,0.00,,2013-03-01 14:41:00,
2013-03-01 08:52:00,25.0,19.0,30.19,ENE,72,3.0,8.0,77,0.00,,,0.00,,2013-03-01 14:52:00,
2013-03-01 09:01:00,25.0,19.0,30.19,ENE,72,3.0,8.0,77,0.00,,,0.00,,2013-03-01 15:01:00,
2013-03-01 09:11:00,25.0,19.0,30.19,ENE,74,4.0,8.0,79,0.00,,,0.00,,2013-03-01 15:11:00,
2013-03-01 09:21:00,25.0,19.0,30.19,ENE,74,4.0,8.0,79,0.00,,,0.00,,2013-03-01 15:21:00,
2013-03-01 09:31:00,25.0,20.0,30.19,ENE,72,2.0,8.0,80,0.00,,,0.00,,2013-03-01 15:31:00,
2013-03-01 09:42:00,25.0,20.0,30.19,ENE,72,2.0,8.0,80,0.00,,,0.00,,2013-03-01 15:42:00,
2013-03-01 09:52:00,25.0,19.0,30.19,ENE,63,5.0,8.0,79,0.00,,,0.00,,2013-03-01 15:52:00,
2013-03-01 10:01:00,26.0,20.0,30.22,ENE,77,5.0,8.0,79,0.00,,,0.00,,2013-03-01 16:01:00,
2013-03-01 10:11:00,26.0,20.0,30.22,ENE,77,5.0,8.0,79,0.00,,,0.00,,2013-03-01 16:11:00,
2013-03-01 10:21:00,26.0,19.0,30.22,East,84,4.0,9.0,76,0.00,,,0.00,,2013-03-01 16:21:00,
2013-03-01 10:32:00,26.0,19.0,30.22,East,84,4.0,9.0,76,0.00,,,0.00,,2013-03-01 16:32:00,
2013-03-01 10:41:00,26.0,19.0,30.22,East,84,4.0,9.0,76,0.00,,,0.00,,2013-03-01 16:41:00,
2013-03-01 10:52:00,27.0,18.0,30.22,ENE,76,5.0,10.0,69,0.00,,,0.00,,2013-03-01 16:52:00,
2013-03-01 11:01:00,27.0,18.0,30.22,ENE,76,5.0,10.0,69,0.00,,,0.00,,2013-03-01 17:01:00,
2013-03-01 11:11:00,27.0,16.0,30.22,ESE,112,6.0,10.0,63,0.00,,,0.00,,2013-03-01 17:11:00,
2013-03-01 11:21:00,27.0,16.0,30.22,ESE,112,6.0,10.0,63,0.00,,,0.00,,2013-03-01 17:21:00,
2013-03-01 11:31:00,27.0,17.0,30.22,ENE,71,4.0,7.0,65,0.00,,,0.00,,2013-03-01 17:31:00,
2013-03-01 11:42:00,27.0,16.0,30.22,ENE,70,3.0,9.0,62,0.00,,,0.00,,2013-03-01 17:42:00,
2013-03-01 11:52:00,27.0,16.0,30.22,ENE,70,3.0,9.0,62,0.00,,,0.00,,2013-03-01 17:52:00,
2013-03-01 12:01:00,27.0,15.0,30.22,ENE,78,6.0,10.0,60,0.00,,,0.00,,2013-03-01 18:01:00,
2013-03-01 12:12:00,27.0,15.0,30.22,ENE,78,6.0,10.0,60,0.00,,,0.00,,2013-03-01 18:12:00,
2013-03-01 12:22:00,28.0,15.0,30.22,ENE,76,5.0,10.0,58,0.00,,,0.00,,2013-03-01 18:22:00,
2013-03-01 12:32:00,28.0,15.0,30.22,ENE,76,5.0,10.0,58,0.00,,,0.00,,2013-03-01 18:32:00,
2013-03-01 12:41:00,29.0,16.0,30.22,East,79,3.0,8.0,58,0.00,,,0.00,,2013-03-01 18:41:00,
2013-03-01 12:52:00,29.0,16.0,30.22,East,79,3.0,8.0,58,0.00,,,0.00,,2013-03-01 18:52:00,
2013-03-01 13:01:00,29.0,14.0,30.22,ENE,65,3.0,9.0,53,0.00,,,0.00,,2013-03-01 19:01:00,
2013-03-01 13:11:00,29.0,14.0,30.22,ENE,65,3.0,9.0,53,0.00,,,0.00,,2013-03-01 19:11:00,
2013-03-01 13:21:00,28.0,14.0,30.22,East,95,4.0,10.0,54,0.00,,,0.00,,2013-03-01 19:21:00,
2013-03-01 13:32:00,29.0,14.0,30.22,ENE,76,3.0,9.0,53,0.00,,,0.00,,2013-03-01 19:32:00,
2013-03-01 13:42:00,29.0,14.0,30.22,ENE,76,3.0,9.0,53,0.00,,,0.00,,2013-03-01 19:42:00,
2013-03-01 13:52:00,29.0,13.0,30.22,ESE,105,8.0,10.0,51,0.00,,,0.00,,2013-03-01 19:52:00,
2013-03-01 14:01:00,28.0,13.0,30.22,ENE,68,4.0,10.0,52,0.00,,,0.00,,2013-03-01 20:01:00,
2013-03-01 14:11:00,28.0,13.0,30.22,ENE,68,4.0,10.0,52,0.00,,,0.00,,2013-03-01 20:11:00,
2013-03-01 14:21:00,29.0,14.0,30.22,NE,53,7.0,9.0,53,0.00,,,0.00,,2013-03-01 20:21:00,
2013-03-01 14:32:00,28.0,13.0,30.22,East,96,8.0,10.0,53,0.00,,,0.00,,2013-03-01 20:32:00,
2013-03-01 14:41:00,28.0,13.0,30.22,East,96,8.0,10.0,53,0.00,,,0.00,,2013-03-01 20:41:00,
2013-03-01 14:52:00,28.0,13.0,30.22,ENE,76,5.0,11.0,52,0.00,,,0.00,,2013-03-01 20:52:00,
2013-03-01 15:01:00,28.0,14.0,30.22,NE,56,4.0,11.0,54,0.00,,,0.00,,2013-03-01 21:01:00,
2013-03-01 15:11:00,28.0,14.0,30.22,ENE,72,6.0,9.0,54,0.00,,,0.00,,2013-03-01 21:11:00,
2013-03-01 15:21:00,28.0,14.0,30.22,ENE,72,6.0,9.0,54,0.00,,,0.00,,2013-03-01 21:21:00,
2013-03-01 15:31:00,28.0,14.0,30.22,ENE,72,6.0,9.0,54,0.00,,,0.00,,2013-03-01 21:31:00,
2013-03-01 15:41:00,27.0,13.0,30.22,ENE,74,4.0,9.0,55,0.00,,,0.00,,2013-03-01 21:41:00,
2013-03-01 15:52:00,27.0,13.0,30.22,ENE,74,4.0,9.0,55,0.00,,,0.00,,2013-03-01 21:52:00,
2013-03-01 16:01:00,27.0,13.0,30.25,ENE,58,3.0,8.0,55,0.00,,,0.00,,2013-03-01 22:01:00,
2013-03-01 16:11:00,27.0,14.0,30.25,East,86,4.0,6.0,57,0.00,,,0.00,,2013-03-01 22:11:00,
2013-03-01 16:21:00,27.0,14.0,30.25,East,86,4.0,6.0,57,0.00,,,0.00,,2013-03-01 22:21:00,
2013-03-01 16:31:00,27.0,14.0,30.25,East,84,5.0,6.0,57,0.00,,,0.00,,2013-03-01 22:31:00,
2013-03-01 16:41:00,27.0,14.0,30.25,East,84,5.0,6.0,57,0.00,,,0.00,,2013-03-01 22:41:00,
2013-03-01 16:52:00,27.0,13.0,30.25,East,83,4.0,8.0,55,0.00,,,0.00,,2013-03-01 22:52:00,
2013-03-01 17:01:00,27.0,12.0,30.25,ENE,69,4.0,9.0,52,0.00,,,0.00,,2013-03-01 23:01:00,
2013-03-01 17:11:00,27.0,12.0,30.25,ENE,69,4.0,9.0,52,0.00,,,0.00,,2013-03-01 23:11:00,
2013-03-01 17:21:00,26.0,11.0,30.25,ESE,102,7.0,8.0,53,0.00,,,0.00,,2013-03-01 23:21:00,
2013-03-01 17:31:00,26.0,11.0,30.25,East,84,3.0,7.0,53,0.00,,,0.00,,2013-03-01 23:31:00,
2013-03-01 17:41:00,26.0,11.0,30.25,East,84,3.0,7.0,53,0.00,,,0.00,,2013-03-01 23:41:00,
2013-03-01 17:52:00,26.0,10.0,30.25,East,83,5.0,10.0,51,0.00,,,0.00,,2013-03-01 23:52:00,
2013-03-01 18:01:00,26.0,11.0,30.25,ENE,75,4.0,10.0,52,0.00,,,0.00,,2013-03-02 00:01:00,
2013-03-01 18:11:00,26.0,11.0,30.25,ENE,75,4.0,10.0,52,0.00,,,0.00,,2013-03-02 00:11:00,
2013-03-01 18:21:00,26.0,10.0,30.25,East,86,5.0,8.0,51,0.00,,,0.00,,2013-03-02 00:21:00,
2013-03-01 18:31:00,26.0,11.0,30.25,ENE,73,2.0,8.0,52,0.00,,,0.00,,2013-03-02 00:31:00,
2013-03-01 18:42:00,26.0,10.0,30.28,East,90,6.0,8.0,51,0.00,,,0.00,,2013-03-02 00:42:00,
2013-03-01 18:52:00,26.0,10.0,30.28,East,90,6.0,8.0,51,0.00,,,0.00,,2013-03-02 00:52:00,
2013-03-01 19:01:00,26.0,9.0,30.28,ENE,62,4.0,8.0,49,0.00,,,0.00,,2013-03-02 01:01:00,
2013-03-01 19:11:00,26.0,9.0,30.28,East,83,4.0,8.0,49,0.00,,,0.00,,2013-03-02 01:11:00,
2013-03-01 19:21:00,26.0,9.0,30.28,East,83,4.0,8.0,49,0.00,,,0.00,,2013-03-02 01:21:00,
2013-03-01 19:31:00,26.0,10.0,30.28,ENE,77,3.0,7.0,50,0.00,,,0.00,,2013-03-02 01:31:00,
2013-03-01 19:41:00,26.0,10.0,30.28,ENE,77,3.0,7.0,50,0.00,,,0.00,,2013-03-02 01:41:00,
2013-03-01 19:52:00,26.0,10.0,30.28,East,83,6.0,7.0,51,0.00,,,0.00,,2013-03-02 01:52:00,
2013-03-01 20:01:00,26.0,11.0,30.28,NE,37,4.0,9.0,53,0.00,,,0.00,,2013-03-02 02:01:00,
2013-03-01 20:11:00,26.0,11.0,30.28,NE,37,4.0,9.0,53,0.00,,,0.00,,2013-03-02 02:11:00,
2013-03-01 20:21:00,25.0,10.0,30.28,East,79,5.0,8.0,52,0.00,,,0.00,,2013-03-02 02:21:00,
2013-03-01 20:32:00,25.0,10.0,30.28,East,79,5.0,8.0,52,0.00,,,0.00,,2013-03-02 02:32:00,
2013-03-01 20:41:00,25.0,10.0,30.28,East,79,5.0,8.0,52,0.00,,,0.00,,2013-03-02 02:41:00,
2013-03-01 20:52:00,25.0,9.0,30.31,ENE,70,4.0,8.0,50,0.00,,,0.00,,2013-03-02 02:52:00,
2013-03-01 21:02:00,25.0,9.0,30.31,ENE,70,4.0,8.0,50,0.00,,,0.00,,2013-03-02 03:02:00,
2013-03-01 21:11:00,24.0,8.0,30.31,ENE,73,3.0,9.0,49,0.00,,,0.00,,2013-03-02 03:11:00,
2013-03-01 21:21:00,24.0,8.0,30.31,ENE,73,3.0,9.0,49,0.00,,,0.00,,2013-03-02 03:21:00,
2013-03-01 21:32:00,25.0,9.0,30.31,ENE,65,3.0,6.0,50,0.00,,,0.00,,2013-03-02 03:32:00,
2013-03-01 21:42:00,25.0,9.0,30.31,ENE,65,3.0,6.0,50,0.00,,,0.00,,2013-03-02 03:42:00,
2013-03-01 21:52:00,25.0,9.0,30.31,ENE,63,5.0,6.0,51,0.00,,,0.00,,2013-03-02 03:52:00,
2013-03-01 22:01:00,25.0,10.0,30.31,East,86,0.0,6.0,52,0.00,,,0.00,,2013-03-02 04:01:00,
2013-03-01 22:11:00,25.0,10.0,30.31,ENE,64,3.0,7.0,52,0.00,,,0.00,,2013-03-02 04:11:00,
2013-03-01 22:21:00,25.0,10.0,30.31,ENE,64,3.0,7.0,52,0.00,,,0.00,,2013-03-02 04:21:00,
2013-03-01 22:32:00,25.0,10.0,30.31,ENE,70,3.0,5.0,52,0.00,,,0.00,,2013-03-02 04:32:00,
2013-03-01 22:42:00,25.0,10.0,30.31,ENE,70,3.0,5.0,52,0.00,,,0.00,,2013-03-02 04:42:00,
2013-03-01 22:52:00,25.0,10.0,30.31,ENE,65,2.0,6.0,52,0.00,,,0.00,,2013-03-02 04:52:00,
2013-03-01 23:01:00,25.0,10.0,30.31,ENE,73,4.0,7.0,52,0.00,,,0.00,,2013-03-02 05:01:00,
2013-03-01 23:12:00,25.0,10.0,30.31,ENE,73,4.0,7.0,52,0.00,,,0.00,,2013-03-02 05:12:00,
2013-03-01 23:22:00,25.0,10.0,30.31,NE,50,2.0,6.0,52,0.00,,,0.00,,2013-03-02 05:22:00,
2013-03-01 23:32:00,25.0,10.0,30.31,NE,43,5.0,6.0,52,0.00,,,0.00,,2013-03-02 05:32:00,
2013-03-01 23:41:00,25.0,10.0,30.31,NE,43,5.0,6.0,52,0.00,,,0.00,,2013-03-02 05:41:00,
2013-03-01 23:52:00,25.0,10.0,30.31,NE,41,3.0,5.0,52,0.00,,,0.00,,2013-03-02 05:52:00,